Regional Weather Roundup
Issued by NWS Midland/Odessa, TX

Skip options and go directly to product.
Home | Oldest Version | Previous Version | Current Version | All | Graphics & Text | Save Text | Print | Product List | Glossary On

Skip product version selection by date and time.   
158
ASUS44 KMAF 060401
RWRMAF
MIDLAND AREA WEATHER ROUNDUP
NATIONAL WEATHER SERVICE MIDLAND TX
1000 PM CST THU MAR 05 2015

...IN SOUTHWEST TEXAS AND SOUTHEAST NEW MEXICO...

CITY           SKY/WX    TMP DP  RH WIND       PRES   REMARKS
ALPINE         PTCLDY    30  28  92 W3        30.49R
ANDREWS        FAIR      32  25  75 SW6       30.46R WCI  27
ARTESIA        CLEAR     30  27  86 SE10      30.41S WCI  21
BIG SPRING     CLEAR    N/A N/A N/A SE7       30.51R
CARLSBAD       CLEAR     30  24  78 S10       30.43R WCI  21
DRYDEN           N/A     38  26  62 S7        30.49R WCI  33
FORT STOCKTON  CLEAR     31  27  85 S6        30.48F WCI  25
GUAD PASS      NOT AVBL
HOBBS          CLEAR     28  28 100 S7        30.44R WCI  21
MARFA          CLEAR     27  25  93 NW5       30.43S WCI  21
MIDLAND AIRPK  CLEAR     36  24  63 S7        30.49R WCI  30
MIDLAND INTL   CLEAR     35  24  64 S10       30.48R WCI  27
ODESSA         CLEAR     33  23  66 S6        30.48R WCI  28
PECOS          CLEAR     30  27  88 S6        30.50S WCI  24
PRESIDIO       FAIR      42  27  53 NE10      30.44R WCI  36
SEMINOLE       CLEAR     30  25  81 CALM      30.45S
SNYDER         CLEAR     32  19  58 SE8       30.49S WCI  25
WINK           CLEAR     32  25  75 SW7       30.47R WCI  26
$$
...OTHER STATIONS IN TEXAS...

CITY           SKY/WX    TMP DP  RH WIND       PRES   REMARKS
ABILENE        CLEAR     29  21  72 S6        30.54R WCI  23
AMARILLO       CLEAR     29  24  82 S8        30.39R WCI  21
AUSTIN         PTCLDY    30  21  69 N9        30.59R WCI  22
BROWNSVILLE    CLOUDY    50  35  56 N13       30.51R
CORPUS CHRISTI MOCLDY    44  28  53 N16       30.55R WCI  37
DALLAS FTW     CLEAR     33  21  61 S5        30.59S WCI  29
DEL RIO        CLEAR     42  28  57 E7        30.55R WCI  38
EL PASO        CLEAR     42  22  44 SE5       30.37R WCI  39
HOUSTON INT    CLEAR     39  25  57 N8        30.56R WCI  33
LUBBOCK        CLEAR     32  25  75 S12       30.41S WCI  23
SAN ANGELO     CLEAR     31  22  69 S6        30.53R WCI  25
SAN ANTONIO    PTCLDY    38  21  50 N5        30.58R WCI  34
WACO           CLEAR     29  22  75 N6        30.61S WCI  23
WICHITA FALLS  NOT AVBL
$$
...OTHER LOCATIONS IN NEW MEXICO...

CITY           SKY/WX    TMP DP  RH WIND       PRES   REMARKS
ALAMAGORDO     CLEAR     36  25  64 E3        30.38R
ALBUQUERQUE    CLEAR     44  11  26 NW8       30.37R WCI  39
CANNON AFB     NOT AVBL
CLOVIS         CLEAR     28  19  69 SW8       30.37R WCI  20
HOLLOMAN AFB   NOT AVBL
ROSWELL        CLEAR     29  24  82 S9        30.39R WCI  20
RUIDOSO        CLEAR     32  18  55 W12       30.37R WCI  23
SANTA FE       CLEAR     30  14  51 N10       30.34R WCI  21
TRUTH OR CONSE CLEAR     42  14  32 S7        30.35R WCI  38
TUCUMCARI      CLEAR     32  23  69 SW7       30.33S WCI  26
$$

USA.gov is the U.S. government's official web portal to all federal, state and local government web resources and services.